Location: Peebles
(55.6412°N, 3.1714°W)
Time: 04:54:24
(UTC+01:00)

deb Agena D - Pass Details

Date: 06 July 2022
Orbit: 797 x 980 km, 99.8° (Epoch: 16 August)

Event Time Altitude Azimuth Distance (km) Brightness Sun altitude
Rises 00:05:31 0° 15° (NNE) 3,383 10.4 -10.2°
Reaches altitude 10° 00:08:00 10° 7° (N) 2,469 9.8 -10.3°
Maximum altitude 00:12:54 35° 303° (WNW) 1,359 7.8 -10.5°
Drops below altitude 10° 00:18:00 10° 240° (WSW) 2,562 8.5 -10.6°
Sets 00:20:37 0° 232° (SW) 3,529 9.2 -10.7°
